Location: Unspecified
(0.0000°N, 0.0000°E)
Time: 02:11:00
(UTC+00:00)

Tiros 1 - All Passes

Search period start: 03 September 2014 00:00
Search period end: 13 September 2014 00:00
Orbit: 633 x 668 km, 48.4° (Epoch: 02 September)

Date Brightness Start Highest point End Pass type
(mag) Time Alt. Az. Time Alt. Az. Time Alt. Az.
03 Sep - 01:25:00 10° NNE 01:27:21 14° NE 01:29:42 10° E night (unlit)
03 Sep - 03:05:04 10° WNW 03:09:28 44° SW 03:13:52 10° SSE night (unlit)
03 Sep - 13:36:55 10° S 13:40:56 26° SE 13:44:56 10° ENE daylight
03 Sep - 15:19:06 10° WSW 15:23:02 25° NW 15:26:59 10° N daylight
04 Sep - 01:50:03 10° NNW 01:54:29 46° NE 01:58:54 10° SE night (unlit)
04 Sep - 03:34:23 10° WSW 03:36:36 13° SW 03:38:49 10° SSW night (unlit)
04 Sep - 14:03:12 10° SW 14:08:01 88° SE 14:12:50 10° NE daylight
05 Sep - 00:37:21 10° NNE 00:39:25 13° NE 00:41:28 10° ENE night (unlit)
05 Sep - 02:17:05 10° NW 02:21:32 48° SW 02:26:00 10° SSE night (unlit)
05 Sep - 12:49:06 10° S 12:52:59 24° SE 12:56:52 10° ENE daylight
05 Sep - 14:31:02 10° WSW 14:35:06 27° NW 14:39:09 10° N daylight
06 Sep - 01:02:10 10° NNW 01:06:33 42° NE 01:10:56 10° ESE night (unlit)
06 Sep - 02:46:10 10° W 02:48:40 14° SW 02:51:10 10° SSW night (unlit)
06 Sep - 13:15:16 10° SW 13:20:04 82° SE 13:24:52 10° NE daylight
06 Sep - 23:49:46 10° NNE 23:51:29 12° NE 23:53:11 10° ENE night (unlit)
07 Sep - 01:29:07 10° NW 01:33:37 52° SW 01:38:07 10° SSE night (unlit)
07 Sep - 12:01:17 10° S 12:05:02 23° SE 12:08:47 10° ENE daylight
07 Sep - 13:43:00 10° WSW 13:47:09 29° NW 13:51:18 10° N daylight
08 Sep - 00:14:17 10° NNW 00:18:38 39° NE 00:22:57 10° ESE night (unlit)
08 Sep - 01:57:59 10° W 02:00:44 16° SW 02:03:28 10° SSW night (unlit)
08 Sep - 12:27:20 10° SW 12:32:07 76° SE 12:36:55 10° NE daylight
08 Sep - 23:02:17 10° NNE 23:03:32 11° NE 23:04:47 10° ENE night (unlit)
09 Sep - 00:41:08 10° NW 00:45:41 56° SW 00:50:13 10° SSE night (unlit)
09 Sep - 11:13:29 10° S 11:17:05 21° SE 11:20:40 10° E daylight
09 Sep - 12:54:58 10° WSW 12:59:11 31° NW 13:03:26 10° NNE daylight
09 Sep - 23:26:24 10° NNW 23:30:42 36° NE 23:34:57 10° ESE night (unlit)
10 Sep - 01:09:50 10° W 01:12:47 17° SW 01:15:45 10° S night (unlit)
10 Sep - 11:39:25 10° SSW 11:44:10 71° SE 11:48:56 10° NE daylight
10 Sep - 22:15:10 10° NE 22:15:35 10° NE 22:15:59 10° NE night (unlit)
10 Sep - 23:53:10 10° NW 23:57:45 61° SW 00:02:20 10° SSE night (unlit)
11 Sep - 10:25:42 10° S 10:29:07 20° SE 10:32:33 10° E daylight
11 Sep - 12:06:56 10° WSW 12:11:14 33° NW 12:15:33 10° NNE daylight
11 Sep - 22:38:32 10° NNW 22:42:45 34° NE 22:46:57 10° ESE night (unlit)
12 Sep - 00:21:41 10° W 00:24:51 18° SW 00:28:00 10° S night (unlit)
12 Sep - 10:51:30 10° SSW 10:56:13 65° SE 11:00:57 10° NE daylight
12 Sep - 12:37:54 10° NW 12:38:25 10° NW 12:38:55 10° NW daylight
12 Sep - 23:05:11 10° NW 23:09:49 67° SW 23:14:25 10° SSE night (unlit)
